Weather Roundup
Issued by NWS Chicago, IL

Home | Current Version | Previous Version | Graphics & Text | Print | Product List | Glossary On
Versions: 1 2 3 4 5 6 7 8 9 10 11 12 13 14 15 16 17 18 19 20 21 22 23 24 25 26 27 28 29 30 31 32 33 34 35 36 37 38 39 40 41 42 43 44 45 46 47 48 49 50
000
NZUS59 KLOT 120303
HRRLOT

CHICAGO AREA WEATHER ROUNDUP
NATIONAL WEATHER SERVICE CHICAGO/ROMEOVILLE IL
900 PM CST THU FEB 11 2016

NOTE: "FAIR" INDICATES FEW OR NO CLOUDS BELOW 12,000 FEET WITH NO
SIGNIFICANT WEATHER AND/OR OBSTRUCTIONS TO VISIBILITY.

* THESE STATIONS ARE NOT UNDER NWS QUALITY CONTROL. THEY ALSO MAY NOT
  REPORT WEATHER SUCH AS PRECIPITATION OR FOG.

ILZ005-006-012>014-019>023-120400-
NORTHEAST ILLINOIS

CITY           SKY/WX    TMP DP  RH WIND       PRES   REMARKS
OHARE          PTCLDY    16   5  62 W5        30.27S WCI   9
MIDWAY         PTCLDY    19   4  51 W5        30.28S WCI  12
AURORA         CLOUDY    18   8  65 SW5       30.27F WCI  11
LANSING*       CLEAR     18   5  58 W5        30.29S WCI  11
WAUKEGAN       MOCLDY    12   3  67 SW5       30.25F WCI   4
DUPAGE AIRPORT CLEAR     13   3  64 CALM      30.26F
WHEELING       CLEAR     17   4  56 SW5       30.28S WCI  10
$$

WIZ051-052-058>065-066-070>072-120400-
SOUTHEAST WISCONSIN

CITY           SKY/WX    TMP DP  RH WIND       PRES   REMARKS
MILWAUKEE      PTCLDY    15   0  51 SW6       30.24F WCI   6
KENOSHA*       MOCLDY    11   2  67 SW6       30.25F WCI   1
RACINE*        MOCLDY    14   1  56 SW5       30.26F WCI   6
BURLINGTON     CLOUDY    11   3  70 SW5       30.24F WCI   3
WAUKESHA       CLOUDY    12   0  57 SW6       30.23F WCI   3
$$

INZ001>003-010>013-019-020-120400-
NORTHWEST INDIANA

CITY           SKY/WX    TMP DP  RH WIND       PRES   REMARKS
GARY*          CLEAR     14   7  73 SW5       30.29S WCI   6
MICHIGAN CITY* NOT AVBL
RENSSELAER*    NOT AVBL
VALPARAISO     PTCLDY    11   6  81 CALM      30.27F
$$

LMZ740>746-120400-
SOUTHERN LAKE MICHIGAN

STATION/POSITION TIME  SKY/WX   TEMP WIND        PRES    VSBY
                                AIR  DIR/SP/G
                 (UTC)          (F)  (DEG/KT/KT) (MB)    (MI)
HARRISON CRIB    0200            22  270/ 11/ 12   N/A
BURNHAM HARBOR   0300            20  250/  8/  9   N/A
CALUMET HARBOR   0200            20                N/A
BURNS HARBOR     0200            18  180/  8/ 10 1025.7F
MICHIGAN CITY    0200            16  140/  6/  7   N/A
$$

ABBREVIATIONS USED IN REMARKS
   TC - TEMPERATURE IN CELSIUS
  WCI - WIND CHILL INDEX
   HX - HEAT INDEX
  VSB - VISIBILITY
$$



USA.gov is the U.S. government's official web portal to all federal, state and local government web resources and services.